Burlington, CO

5:35 PM MDT on June 22, 2017 (GMT -0600)
Kit Carson County

Weather History for KITR - April, 2014

Change the Weather History Date:

Thursday, April 3, 2014

  Actual Average Record
Temperature  
Mean Temperature 32 °F 45 °F  
Max Temperature 39 °F 59 °F 92 °F (1921)
Min Temperature 25 °F 30 °F 5 °F (1975)
Degree Days  
Heating Degree Days 33    
Moisture  
Dew Point 29 °F    
Average Humidity 88    
Maximum Humidity 96    
Minimum Humidity 76    
Precipitation  
Precipitation 0.11 in 0.02 in 1.22 in (1986)
Month to date precipitation 0.11 0.07  
Year to date precipitation 1.02 1.76  
Sea Level Pressure  
Sea Level Pressure 29.84 in    
Wind  
Wind Speed 14 mph (North)    
Max Wind Speed 23 mph    
Max Gust Speed 29 mph    
Visibility 4 miles    
Events Fog , Snow    
T = Trace of Precipitation, MM = Missing Value Source: NWS Daily Summary

Daily Weather History Graph

Daily Weather History Graph

Search for Another Location

Airport or City:

Trip Planner

Search our weather history database for the weather conditions in past years. The results will help you decide how hot, cold, wet, or windy it might be!

Date:

Astronomy

Apr. 03, 2014 Rise Set
Actual Time 6:30 AM MDT 7:14 PM MDT
Civil Twilight 6:03 AM MDT 7:42 PM MDT
Nautical Twilight 5:31 AM MDT 8:14 PM MDT
Astronomical Twilight 4:58 AM MDT 8:47 PM MDT
Moon 9:02 AM MDT (4/3) 11:35 PM MDT (4/3)
Length of Visible Light 13h 38m
Length of Day
12h 44m
Waxing Crescent, 18% of the Moon is Illuminated
Apr 3
Waxing Crescent
Apr 7
First Quarter
Apr 15
Full
Apr 22
Last Quarter
Apr 29
New

Hourly Weather History & Observations

Time (MDT) Temp. Windchill Dew Point Humidity Pressure Visibility Wind Dir Wind Speed Gust Speed Precip Events Conditions
12:30 AM 32.0 °F 23.0 °F 27.0 °F 82% 29.75 in 7.0 mi NNE 11.5 mph - N/A   Mostly Cloudy
12:40 AM 30.9 °F 22.2 °F 27.0 °F 85% 29.75 in 7.0 mi NNE 10.4 mph - N/A   Scattered Clouds
12:53 AM 30.9 °F 21.2 °F 27.0 °F 85% 29.73 in 6.0 mi NNE 12.7 mph - N/A   Scattered Clouds
1:02 AM 32.0 °F 22.1 °F 28.0 °F 85% 29.74 in 6.0 mi NNE 13.8 mph - N/A   Mostly Cloudy
1:53 AM 33.1 °F 21.5 °F 28.9 °F 85% 29.73 in 5.0 mi NNE 19.6 mph - N/A   Overcast
2:53 AM 33.1 °F 24.4 °F 28.9 °F 85% 29.72 in 5.0 mi North 11.5 mph - N/A   Overcast
3:53 AM 33.1 °F 23.0 °F 28.9 °F 85% 29.71 in 5.0 mi NNE 15.0 mph - N/A   Overcast
4:31 AM 33.1 °F 23.9 °F 28.0 °F 82% 29.73 in 6.0 mi North 12.7 mph - N/A   Haze
4:53 AM 33.1 °F 24.4 °F 28.9 °F 85% 29.70 in 6.0 mi North 11.5 mph - N/A   Overcast
5:01 AM 33.1 °F 24.4 °F 28.9 °F 85% 29.75 in 6.0 mi NNW 11.5 mph - N/A   Overcast
5:39 AM 33.1 °F 23.0 °F 28.9 °F 85% 29.73 in 6.0 mi North 15.0 mph - N/A   Mostly Cloudy
5:53 AM 34.0 °F 24.6 °F 30.0 °F 85% 29.71 in 7.0 mi North 13.8 mph - N/A   Overcast
6:53 AM 34.0 °F 25.0 °F 30.0 °F 85% 29.75 in 7.0 mi North 12.7 mph - N/A   Overcast
7:51 AM 33.8 °F 23.9 °F 30.2 °F 87% 29.78 in 1.8 mi North 15.0 mph - 0.00 in Snow Light Snow
7:53 AM 33.1 °F 23.4 °F 30.9 °F 92% 29.78 in 1.5 mi North 13.8 mph - 0.00 in Snow Light Snow
8:17 AM 32.0 °F 19.8 °F 30.0 °F 92% 29.78 in 0.5 mi North 20.7 mph 25.3 mph 0.02 in Fog , Snow Snow
8:32 AM 32.0 °F 20.8 °F 30.0 °F 92% 29.79 in 0.2 mi North 17.3 mph - 0.02 in Fog , Snow Snow
8:50 AM 32.0 °F 20.8 °F 30.2 °F 93% 29.78 in 0.5 mi North 17.3 mph - 0.03 in Fog , Snow Light Snow
8:53 AM 32.0 °F 21.2 °F 30.0 °F 92% 29.81 in 0.5 mi North 16.1 mph - 0.03 in Fog , Snow Snow
9:05 AM 32.0 °F 21.2 °F 30.9 °F 96% 29.79 in 0.5 mi North 16.1 mph 23.0 mph 0.00 in Fog , Snow Snow
9:38 AM 32.0 °F 20.8 °F 30.0 °F 92% 29.79 in 0.5 mi North 17.3 mph - 0.02 in Fog , Snow Snow
9:53 AM 32.0 °F 19.8 °F 30.0 °F 92% 29.83 in 0.5 mi North 20.7 mph - 0.02 in Fog , Snow Snow
10:53 AM 32.0 °F 20.1 °F 30.0 °F 92% 29.84 in 0.2 mi North 19.6 mph - 0.01 in Fog , Snow Snow
11:01 AM 32.0 °F 19.5 °F 30.0 °F 92% 29.81 in 0.2 mi North 21.9 mph 28.8 mph 0.00 in Fog , Snow Snow
11:41 AM 32.0 °F 19.2 °F 30.0 °F 92% 29.82 in 0.5 mi North 23.0 mph - 0.01 in Fog , Snow Snow
11:53 AM 32.0 °F 19.8 °F 30.9 °F 96% 29.86 in 0.5 mi North 20.7 mph 28.8 mph 0.01 in Fog , Snow Snow
12:41 PM 33.1 °F 23.9 °F 30.9 °F 92% 29.83 in 0.5 mi North 12.7 mph - 0.00 in Fog , Snow Light Snow
12:53 PM 33.1 °F 23.0 °F 30.9 °F 92% 29.88 in 0.8 mi North 15.0 mph 24.2 mph 0.00 in Snow Light Snow
1:08 PM 33.1 °F 21.9 °F 30.9 °F 92% 29.84 in 0.5 mi North 18.4 mph - 0.01 in Fog , Snow Snow
1:37 PM 32.0 °F 19.8 °F 30.9 °F 96% 29.85 in 0.2 mi North 20.7 mph - 0.01 in Fog , Snow Snow
1:53 PM 33.1 °F 22.6 °F 30.9 °F 92% 29.89 in 0.2 mi North 16.1 mph - 0.02 in Fog , Snow Snow
2:00 PM 33.1 °F 23.4 °F 30.9 °F 92% 29.86 in 0.5 mi North 13.8 mph - 0.00 in Fog , Snow Snow
2:33 PM 33.1 °F 22.6 °F 30.9 °F 92% 29.86 in 1.0 mi North 16.1 mph - 0.02 in Snow Light Snow
2:43 PM 33.1 °F 23.0 °F 30.9 °F 92% 29.86 in 3.0 mi North 15.0 mph 23.0 mph 0.02 in Snow Light Snow
2:53 PM 34.0 °F 24.2 °F 30.9 °F 89% 29.90 in 8.0 mi North 15.0 mph - 0.02 in   Mostly Cloudy
3:53 PM 36.0 °F 26.7 °F 30.0 °F 79% 29.91 in 10.0 mi North 15.0 mph - N/A   Clear
4:53 PM 37.0 °F 31.0 °F 30.0 °F 76% 29.95 in 10.0 mi NNW 8.1 mph - N/A   Clear
5:53 PM 37.9 °F 34.4 °F 30.9 °F 76% 29.98 in 10.0 mi WNW 4.6 mph - N/A   Mostly Cloudy
6:53 PM 36.0 °F 33.3 °F 32.0 °F 86% 30.01 in 10.0 mi SW 3.5 mph - N/A   Scattered Clouds
7:53 PM 33.1 °F 28.7 °F 28.9 °F 85% 30.04 in 10.0 mi SW 4.6 mph - N/A   Clear
9:53 PM 30.0 °F 23.2 °F 27.0 °F 88% 30.11 in 10.0 mi West 6.9 mph - N/A   Partly Cloudy
10:53 PM 27.0 °F 21.6 °F 24.1 °F 89% 30.14 in 10.0 mi West 4.6 mph - N/A   Clear
11:53 PM 25.0 °F 19.3 °F 23.0 °F 92% 30.17 in 9.0 mi West 4.6 mph - N/A   Clear